Location: Devore Heights
(34.2372°N, 117.4156°W)
Time: 18:53:04
(UTC+00:00)

deb Explorer IX - Pass Details

Date: 15 September 2024
Orbit: 502 x 816 km, 38.7° (Epoch: 15 October)

Event Time Altitude Azimuth Distance (km) Brightness Sun altitude
Rises 05:40:00 0° 276° (W) 3,413 ? -42.7°
Reaches altitude 10° 05:42:39 10° 281° (W) 2,468 ? -43.1°
Enters shadow 05:43:14 13° 282° (WNW) 2,263 ? -43.2°
Maximum altitude 05:48:26 54° 358° (N) 988 - -43.9°
Drops below altitude 10° 05:53:54 10° 76° (ENE) 2,327 - -44.7°
Sets 05:56:20 0° 81° (E) 3,204 - -45.0°
